Regional Weather Roundup
Issued by NWS

Home | Current Version | Previous Version | Graphics & Text | Print | Product List | Glossary On
Versions: 1 2 3 4 5 6 7 8 9 10 11 12 13 14 15 16 17 18 19 20 21 22 23 24 25 26 27 28 29 30 31 32 33 34 35 36 37 38 39 40 41 42 43 44 45 46 47 48 49 50
047
ASUS43 KOAX 241102
RWRNE

WEATHER ROUNDUP FOR NEBRASKA
NATIONAL WEATHER SERVICE OMAHA NE
500 AM CST TUE JAN 24 2017

NOTES: SATELLITE DATA IS BEING USED TO AUGMENT CLOUD COVER ABOVE
       12000 FEET.
       "FAIR" INDICATES FEW OR NO CLOUDS BELOW 12,000 FEET WITH NO
       SIGNIFICANT WEATHER AND/OR OBSTRUCTIONS TO VISIBILITY.

  * THESE STATIONS DO NOT REPORT WEATHER SUCH AS RAIN...SNOW OR FOG.

NEZ001>004-019>022-054>056-241200-
NEBRASKA PANHANDLE

CITY           SKY/WX    TMP DP  RH WIND       PRES   REMARKS
SCOTTSBLUFF    LGT SNOW  24  20  84 W5        29.60R FOG     WCI  18
ALLIANCE       FOG       23  21  92 N15       29.58R VSB 1/2 WCI  10
CHADRON        FOG       23  21  92 N9        29.67S VSB 3/4 WCI  13
KIMBALL        CLOUDY    27  27 100 N12       29.51F WCI  17
SIDNEY         MIX PCPN  27  25  92 NE21      29.51F WCI  13
$$

NEZ057>060-069>072-079>082-241200-
SOUTHWEST NEBRASKA

CITY           SKY/WX    TMP DP  RH WIND       PRES   REMARKS
NORTH PLATTE   CLOUDY    31  29  92 E13       29.55F FOG     WCI  21
IMPERIAL       CLOUDY    31  29  92 NE6       29.51R WCI  25
LEXINGTON      CLOUDY    32  32  97 E14       29.54F FOG     WCI  22
MCCOOK         CLOUDY    32  31  96 E12       29.51R FOG     WCI  23
OGALLALA       FOG       32  32  99 NE12      29.55S VSB 1   WCI  23
$$

NEZ005>010-023>029-035>040-094-241200-
NORTH CENTRAL NEBRASKA

CITY           SKY/WX    TMP DP  RH WIND       PRES   REMARKS
VALENTINE      CLOUDY    30  28  92 NE6       29.66F FOG     WCI  24
AINSWORTH      FOG       31  31 100 E7        29.65S VSB 1/2 WCI  24
BROKEN BOW     FOG       31  31 100 E12       29.58F VSB 1/4 WCI  22
O`NEILL        FOG       31  31 100 E6        29.70S VSB 3/4 WCI  25
ORD            FOG       31  29  92 E8        29.64S VSB 3/4 WCI  23
THEDFORD       FOG       31  31 100 NE10      29.61F VSB 1/2 WCI  22
$$

NEZ041-046>049-061>064-073>077-083>087-241200-
SOUTH CENTRAL NEBRASKA

CITY           SKY/WX    TMP DP  RH WIND       PRES   REMARKS
GRAND ISLAND   CLOUDY    31  31 100 E18       29.61F FOG     WCI  19
AURORA         CLOUDY    31  31 100 E17       29.63F FOG     WCI  20
HASTINGS       CLOUDY    32  30  92 E15       29.58F FOG     WCI  22
HEBRON         CLOUDY    32  31  98 E16       29.62F FOG     WCI  21
HOLDREGE       CLOUDY    32  31  95 E12G20    29.53F FOG     WCI  23
KEARNEY *      MOCLDY    32  28  86 E15       29.56F WCI  22
YORK           PTCLDY    32  32 100 E14       29.67F FOG     WCI  22
$$

NEZ011>018-030>034-042>045-241200-
NORTHEAST NEBRASKA

CITY           SKY/WX    TMP DP  RH WIND       PRES   REMARKS
NORFOLK        CLOUDY    30  28  92 E8        29.70F FOG     WCI  22
ALBION         CLOUDY    32  30  92 SE12      29.70R FOG     WCI  23
BLAIR          CLOUDY    30  29  96 E10       29.75F FOG     WCI  21
FREMONT        CLOUDY    30  30 100 E12       29.75F FOG     WCI  21
TEKAMAH        CLOUDY    31  28  89 SE12      29.79F WCI  22
WAYNE          CLOUDY    31  30  96 E6        29.76S WCI  25
$$

NEZ050>053-065>068-078-088>093-241200-
SOUTHEAST NEBRASKA

CITY           SKY/WX    TMP DP  RH WIND       PRES   REMARKS
LINCOLN        CLOUDY    31  29  92 E10       29.74F FOG     WCI  22
OMAHA EPPLEY   CLOUDY    30  26  85 E7        29.79S WCI  23
BEATRICE       CLOUDY    32  31  96 E13       29.69F FOG     WCI  22
FALLS CITY     CLOUDY    30  28  92 E13       29.75S WCI  20
NEBRASKA CITY  CLOUDY    30  30 100 E12       29.75F FOG     WCI  21
PLATTSMOUTH    FOG       30  28  91 E13       29.76F VSB 1/2 WCI  20
$$

NEZ044-045-051>053-067-241200-
OMAHA AREA

CITY           SKY/WX    TMP DP  RH WIND       PRES   REMARKS
OMAHA EPPLEY   CLOUDY    30  26  85 E7        29.79S WCI  23
BLAIR          CLOUDY    30  29  96 E10       29.75F FOG     WCI  21
FREMONT        CLOUDY    30  30 100 E12       29.75F FOG     WCI  21
MILLARD        CLOUDY    32  31  96 E8        29.77S FOG     WCI  25
OFFUTT AFB     CLOUDY    30  30 100 E10       29.78R WCI  21
PLATTSMOUTH    FOG       30  28  91 E13       29.76F VSB 1/2 WCI  20
WAHOO          CLOUDY    31  30  96 E13       29.75F FOG     WCI  21
$$




USA.gov is the U.S. government's official web portal to all federal, state and local government web resources and services.